Погода в Тринити-Биче

Австралия     16°47′20″S   145°41′33″E
темп.,
°C
ветер,
м/с
пор.,
м/с
влажн.,
%
обл.,
%
осадки,
мм/ч
давл.,
гПа
погр.,
м
26 сентября, вс
вс2601:00+22ююв45803 0.0 1014388
04:00+21ю45836 0.0 1013297
07:00+21ю5780100 0.0 1015352
10:00+24вюв5769100 0.0 1015651
13:00+24в667439 0.0 1013471
16:00+24вюв677467 0.0 1011620
19:00+23юв4575100 0.0 1013614
22:00+23ююв567827 0.0 1014602
27 сентября, пн
пн2701:00+22ююв458298 0.0 1013370
04:00+21ююв578512 0.0 1013397
07:00+21ю46805 0.0 1014399
10:00+24вюв56685 0.0 1015827
13:00+24вюв677171 0.0 1013646
16:00+24вюв78706 0.0 1011636
19:00+23юв7107634 0.0 1012731
22:00+23ююв598087 0.0 1015655
28 сентября, вт
вт2801:00+23ююв698272 0.1 1013574
04:00+23юв698618 0.4 1012656
07:00+23юв58848 0.4 1015632
10:00+25вюв687879 0.7 1016780
13:00+25вюв787988 0.2 1014722
16:00+25вюв678095 0.3 1012691
19:00+24юв798595 0.1 1014706
22:00+24вюв798576 0.6 1016759
29 сентября, ср
ср2901:00+23вюв798418 0.6 1015735
04:00+24юв71080100 1.1 1014865
07:00+23юв79787 0.1 1016796
10:00+24вюв776993 0.2 1017878
13:00+24вюв676898 0.0 1015672
16:00+24вюв676995 0.0 1013694
19:00+24юв57746 0.0 1015795
22:00+23юв677627 0.0 1017874
30 сентября, чт
чт3001:00+23юв567585 0.1 1015703
04:00+23юв467691 0.2 1014445
07:00+24юв457287 0.1 1016530
10:00+25вюв466853 0.1 1016683
13:00+24в567111 0.0 1014529
16:00+24в56713 0.0 1012663
19:00+24вюв46760 0.0 1013666
22:00+23ююв44784 0.0 1014493